星链-2425 (STARLINK-2425 )

导读 | 星芒AI

STARLINK-2425 是 SpaceX Starlink 项目中的一颗低轨通信卫星,属于第24批发射的星链卫星群。该卫星旨在为全球用户提供高速互联网服务,尤其关注网络覆盖不足的地区。它运行在约550公里高的近地轨道,具备先进的通信技术和自动避撞系统,以确保运行安全。作为星链星座的一部分,STARLINK-2425 有助于提升全球互联网接入的普及率和稳定性。

基本信息
目录编号:
47835
目录名称:
STARLINK-2425
国际标识:
2021-018BA
轨道中心:
EARTH
卫星名称:
星链-2425
卫星全名:
星链-2425 (STARLINK-2425 )
卫星状态:
已陨落 最后检测时间 2024-08-31
发射日期:
2021-03-11 UTC
国别 :
美国 (US)
星等 :
--
轨道信息
数据来源 国际轨道数据
星历时间: 2024-08-31T15:49:18+0800
轨道信息已过期427天
半长轴: 6560.567km
偏心率: 0.0002679
轨道倾角: 53.026°
近地点辐角 244.452°
升交点赤经 185.611°
平近点角 202.784°
近地点: 180.674km
远地点: 184.19km
周期: 88.140分钟
每日圈数: 16.337694
详细信息
固有亮度:
5
最大亮度:
2.5
卫星平台:
Starlink V1.0
覆盖范围:
全球
运营商:
太空探索技术公司
运营商所在国:
美国
制造商(研发单位):
太空探索技术公司
制造商所在国:
美国
使用方式:
暂无
卫星简介
星链(Starlink)计划是由太空探索技术公司(SpaceX)提出的一个巨型低轨卫星互联网星座项目,计划在2019年至2024年间在太空搭建由约1.2万颗卫星组成的“星链”网络,其中1584颗将部署在地球上空550千米处的近地轨道,并从2020年开始工作。该卫星仍在工作。